Terug naar catalogus

COSMOS 1275 DEB

ActiefPO
NORAD 14739·DEBRIS·🇷🇺 Russia

Gelanceerd Jun 4, 1981 vanaf Plesetsk Cosmodrome

Loading…

Volgende Passages (komende 24 uur)

TLE

VersSource: Space-Track

Epoch: Sep 14, 2026, 01:25 UTC

1 14739U 81053JU  26257.05915213  .00001210  00000-0  74958-3 0  9999
2 14739  83.0057 133.5818 0056624 304.9283  54.6576 14.03685039274421

Volg COSMOS 1275 DEB in realtime met AllMySat

Download on the App Store